Terminal Aerodrome Forecast
Issued by NWS

Home | Current Version | Previous Version | Text Only | Print | Product List | Glossary On
Versions: 1 2 3 4 5 6 7 8 9 10 11 12 13 14 15 16 17 18 19 20 21 22 23 24 25 26 27 28 29 30 31 32 33 34 35 36
000
FTUS45 KSLC 301742 AAA
TAFSGU
TAF AMD
KSGU 301742Z 3018/3118 34007KT P6SM FEW080
     FM302100 32010G15KT P6SM SCT080 SCT140
     FM310300 VRB04KT P6SM FEW080 SCT140
      AMD LTD TO CLD VIS AND WIND=

USA.gov is the U.S. government's official web portal to all federal, state and local government web resources and services.